[[{"header":{"parameterUnit":"m.s-1","parameterCategory":1,"la1":30.2991,"la2":30.254,"lo1":-89.0895,"lo2":-89.0444,"dy":0.0017,"dx":0.0017,"nx":28,"ny":28,"refTime":"2024-06-18T03:00:00:Z","depth":0,"parameterNumber":2,"parameterNumberName":"U-component_of_WINDS"},"data":[0,0,0,0,0,0,0,0,0,0,0,0,0,0,0,0,0,0,0,0,0,0,0,0,0,0,0,0,0,0,0,0,0,0,0,0,0,0,0,0,0,0,0,0,0,0,0,0,0,0,0,0,0,0,0,0,0,0,-8.6219,-8.6219,0,-8.6197,-8.6197,-8.6196,-8.5911,-8.5904,-8.5896,-8.5889,-8.5869,-8.5875,-8.5881,0,0,0,0,0,0,0,0,0,0,0,0,0,-8.6016,-8.6021,-8.6219,-8.6219,-8.6219,-8.6197,-8.6197,-8.6196,-8.5912,-8.5903,-8.5894,-8.5886,-8.5867,-8.5874,-8.5882,0,0,0,0,0,0,0,0,0,0,0,0,0,-8.6061,-8.6023,-8.6219,-8.6074,-8.6061,-8.6197,-8.6197,-8.6196,-8.5914,-8.5903,-8.5892,-8.5882,-8.5865,-8.5874,-8.5883,-8.6157,0,0,-8.5911,-8.5915,0,0,0,0,0,0,0,0,-8.6058,-8.6068,-8.6096,-8.6084,-8.607,-8.6045,-8.6117,-8.6183,-8.5917,-8.597,-8.5889,-8.5877,-8.5937,-8.5939,-8.5959,-8.6156,-8.6155,-8.5912,-8.5918,-8.5922,-8.5924,0,0,0,0,0,0,0,-8.6056,-8.6068,-8.621,-8.6096,-8.6081,-8.601,-8.6005,-8.6129,-8.6015,-8.5964,-8.5943,-8.5945,-8.5928,-8.5951,-8.5957,-8.6155,-8.5912,-8.592,-8.5926,-8.593,-8.6574,-8.6585,0,0,0,0,0,0,-8.6072,-8.6067,-8.6211,-8.6209,-8.6037,-8.6023,-8.6016,-8.6064,-8.6012,-8.5994,-8.5954,-8.5931,-8.594,-8.5946,-8.5955,-8.6269,-8.5922,-8.593,-8.5936,-8.6562,-8.6576,-8.6589,0,0,0,0,0,0,-8.6069,-8.6088,-8.6212,-8.6133,-8.6143,-8.6038,-8.6094,-8.607,-8.6092,-8.6004,-8.5983,-8.5999,-8.5932,-8.5942,-8.6108,-8.6265,-8.5935,-8.5943,-8.6549,-8.6567,-8.6583,-8.6904,0,0,0,0,0,0,-8.6065,-8.6089,-8.6191,-8.6137,-8.6148,-8.6366,-8.6104,-8.6077,-8.6109,-8.6079,-8.6041,-8.6024,-8.5924,-8.6096,-8.6118,-8.6272,-8.595,-8.6534,-8.6557,-8.6577,-8.6879,-8.693,-8.6974,0,0,0,0,0,-8.6058,-8.6284,-8.6198,-8.6217,-8.6275,-8.6376,-8.6382,-8.6262,-8.6123,-8.6225,-8.6168,-8.6025,-8.6246,-8.6116,-8.6137,-8.6297,-8.6524,-8.655,-8.6575,-8.6858,-8.692,-8.6973,0,0,0,0,0,0,-8.636,-8.6274,-8.6178,-8.6392,-8.6394,-8.6327,-8.6452,-8.6333,-8.6374,-8.6345,-8.6195,-8.6189,-8.6378,-8.6354,-8.6211,-8.6559,-8.6359,-8.6391,-8.6566,-8.6625,-8.6672,-8.6672,-8.5958,0,0,0,0,0,-8.6452,-8.6541,-8.6461,-8.6658,-8.6663,-8.6559,-8.6599,-8.6506,-8.6502,-8.6501,-8.6456,-8.6458,-8.6526,-8.6575,-8.6634,-8.6876,-8.6862,-8.6996,-8.7044,-8.7083,-8.7111,-8.7235,-8.7293,-8.6674,-8.6674,-8.6673,0,0,-8.6642,-8.6605,-8.6671,-8.6718,-8.6707,-8.6802,-8.6561,-8.6672,-8.6741,-8.6518,-8.667,-8.664,-8.6631,-8.6836,-8.6924,-8.6822,-8.728,-8.7116,-8.7149,-8.7155,-8.7267,-8.7326,-8.7378,-8.6692,-8.6689,-8.6686,0,0,-8.7035,-8.7018,-8.7178,-8.7173,-8.7161,-8.709,-8.7129,-8.7082,-8.7051,-8.7203,-8.7036,-8.7117,-8.724,-8.724,-8.7256,-8.7652,-8.752,-8.7675,-8.7923,-8.8045,-8.8093,-8.8136,-8.8274,-8.8325,-8.7704,-8.7705,-8.7706,0,-8.7272,-8.7408,-8.7277,-8.7398,-8.7423,-8.7225,-8.7386,-8.7388,-8.7397,-8.7418,-8.7304,-8.7453,-8.7434,-8.7634,-8.7731,-8.7752,-8.7791,-8.7677,-8.8097,-8.8138,-8.8176,-8.8305,-8.8358,-8.7724,-8.7722,-8.772,-8.7718,0,-8.7698,-8.7796,-8.7927,-8.7938,-8.7979,-8.8121,-8.8011,-8.8067,-8.7973,-8.7915,-8.8071,-8.8042,-8.809,-8.8131,-8.8041,-8.832,-8.8256,-8.8123,-8.7919,-8.8256,-8.8375,-8.8424,-8.775,-8.7744,-8.7738,-8.7734,0,0,-8.8278,-8.8216,-8.8266,-8.8267,-8.824,-8.8312,-8.8446,-8.8492,-8.8542,-8.8556,-8.8662,-8.8771,-8.8646,-8.8665,-8.8573,-8.8682,-8.8993,-8.8533,-8.8531,-8.8617,-8.9295,-8.9393,-8.9453,-8.8907,-8.8916,-8.8924,-8.9295,0,-8.8654,-8.8875,-8.8761,-8.8997,-8.9084,-8.8898,-8.9013,-8.9009,-8.8959,-8.9026,-8.897,-8.9049,-8.888,-8.889,-8.8989,-8.8934,-8.9126,-8.8906,-8.9003,-8.9008,-8.9007,-8.9516,-8.9619,-8.9971,-8.9341,-8.9349,-8.9354,0,-8.9121,-8.9153,-8.9397,-8.9352,-8.9384,-8.949,-8.9522,-8.9589,-8.9581,-8.9536,-8.9559,-8.9441,-8.9568,-8.937,-8.9542,-8.9395,-8.9428,-8.9408,-8.9418,-8.9419,-8.9199,-8.9527,-9.008,-9.0132,-8.9427,-8.9421,-8.9416,0,-8.9515,-8.9619,-8.9777,-8.9786,-8.9738,-8.9816,-8.98,-8.9781,-8.9816,-8.9846,-8.9866,-8.9912,-8.9936,-8.9974,-8.9872,-8.9738,-9.0058,-8.9851,-9.0023,-9.0026,-9.0095,-9.0091,-9.0658,-9.0125,-9.0124,-9.0123,-9.0122,0,-8.9944,-9.01,-8.9953,-9.0051,-9.022,-9.0089,-9.026,-9.0224,-9.0209,-9.0296,-9.014,-9.0226,-9.0087,-9.0159,-9.0081,-9.0233,-9.0247,-9.0214,-9.019,-9.0225,-9.0229,-9.0242,-9.0213,-9.0137,-9.0134,-9.0131,-9.0129,0,-9.0411,-9.0319,-9.0479,-9.0421,-9.041,-9.0537,-9.0486,-9.0574,-9.0514,-9.0626,-9.0645,-9.0551,-9.0628,-9.053,-9.0599,-9.0546,-9.0753,-9.0695,-9.0756,-9.0737,-9.0913,-9.0897,-9.1505,-9.1576,-9.1002,-9.1008,-9.1012,0,-9.0688,-9.0803,-9.0757,-9.0804,-9.0796,-9.0874,-9.0908,-9.0785,-9.0828,-9.0827,-9.0915,-9.0978,-9.1021,-9.1153,-9.109,-9.1142,-9.1081,-9.1291,-9.1088,-9.1119,-9.108,-9.1073,-9.1082,-9.1331,-9.1338,-9.1344,-9.1348,0,-9.119,-9.1138,-9.1193,-9.1234,-9.1279,-9.1305,-9.1319,-9.1367,-9.1238,-9.1294,-9.1369,-9.1403,-9.1472,-9.1536,-9.157,-9.1554,-9.1431,-9.1414,-9.1455,-9.149,-9.1518,-9.1502,-9.0864,-9.1399,-9.1394,-9.139,-9.1388,-9.1386,-9.1566,-9.1659,-9.1641,-9.1707,-9.1705,-9.1722,-9.1801,-9.1751,-9.1811,-9.1856,-9.1781,-9.1876,-9.1864,-9.1898,-9.1896,-9.1968,-9.1877,-9.1939,-9.1954,-9.197,-9.1995,-9.1511,-9.1975,-9.1973,-9.1972,-9.197,-9.1969,0,-9.2056,-9.2035,-9.2098,-9.2122,-9.2175,-9.2055,-9.2064,-9.2116,-9.2201,-9.2201,-9.2247,-9.2334,-9.2395,-9.234,-9.239,-9.2459,-9.2404,-9.2476,-9.2467,-9.2465,-9.2075,-9.2032,-9.252,-9.252,-9.252,-9.252,-9.252,-9.2519,-9.2316,-9.2466,-9.2414,-9.2561,-9.2538,-9.2629,-9.2645,-9.266,-9.2658,-9.2762,-9.2812,-9.2775,-9.2752,-9.28,-9.2851,-9.2833,-9.2857,-9.295,-9.2912,-9.2547,-9.2493,-9.2441,-9.24,-9.2957,-9.2958,-9.3295,-9.3298,-9.33]},{"header":{"parameterUnit":"m.s-1","parameterCategory":1,"la1":30.2991,"la2":30.254,"lo1":-89.0895,"lo2":-89.0444,"dy":0.0017,"dx":0.0017,"nx":28,"ny":28,"refTime":"2024-06-18T03:00:00:Z","depth":0,"parameterNumber":3,"parameterNumberName":"V-component_of_WINDS"},"data":[0,0,0,0,0,0,0,0,0,0,0,0,0,0,0,0,0,0,0,0,0,0,0,0,0,0,0,0,0,0,0,0,0,0,0,0,0,0,0,0,0,0,0,0,0,0,0,0,0,0,0,0,0,0,0,0,0,0,-0.0919,-0.0919,0,-0.0934,-0.0934,-0.0935,-0.0991,-0.0992,-0.0994,-0.0995,-0.1009,-0.1008,-0.1007,0,0,0,0,0,0,0,0,0,0,0,0,0,-0.0935,-0.0935,-0.0919,-0.0919,-0.0919,-0.0934,-0.0934,-0.0935,-0.0991,-0.0992,-0.0994,-0.0995,-0.1009,-0.1008,-0.1007,0,0,0,0,0,0,0,0,0,0,0,0,0,-0.0937,-0.0934,-0.0919,-0.0949,-0.0952,-0.0934,-0.0934,-0.0935,-0.099,-0.0992,-0.0994,-0.0996,-0.1009,-0.1008,-0.1007,-0.0961,0,0,-0.1003,-0.1003,0,0,0,0,0,0,0,0,-0.0937,-0.0936,-0.0945,-0.0947,-0.095,-0.0963,-0.0945,-0.0943,-0.099,-0.0976,-0.0995,-0.0997,-0.0992,-0.0992,-0.0991,-0.0961,-0.0962,-0.1003,-0.1002,-0.1002,-0.1001,0,0,0,0,0,0,0,-0.0937,-0.0936,-0.0925,-0.0945,-0.0948,-0.0961,-0.0963,-0.0945,-0.0973,-0.0977,-0.0981,-0.0982,-0.0994,-0.0992,-0.0991,-0.0962,-0.1003,-0.1002,-0.1001,-0.1001,-0.0892,-0.089,0,0,0,0,0,0,-0.0933,-0.0936,-0.0925,-0.0926,-0.0948,-0.0959,-0.0962,-0.0957,-0.0973,-0.0977,-0.0981,-0.0985,-0.0993,-0.0993,-0.0992,-0.0937,-0.1002,-0.1001,-0.1,-0.0894,-0.0892,-0.0889,0,0,0,0,0,0,-0.0933,-0.0931,-0.0924,-0.0932,-0.0932,-0.0957,-0.0951,-0.0956,-0.0954,-0.0976,-0.0981,-0.0974,-0.0994,-0.0994,-0.0967,-0.0938,-0.1,-0.0999,-0.0897,-0.0893,-0.0891,-0.0827,0,0,0,0,0,0,-0.0933,-0.0931,-0.0914,-0.0931,-0.0931,-0.09,-0.0949,-0.0955,-0.0952,-0.0958,-0.0971,-0.0975,-0.0996,-0.0969,-0.0966,-0.0938,-0.0998,-0.09,-0.0895,-0.0892,-0.0832,-0.0822,-0.0814,0,0,0,0,0,-0.0933,-0.0896,-0.0913,-0.0912,-0.0911,-0.0898,-0.0898,-0.0924,-0.095,-0.0932,-0.0946,-0.0974,-0.0942,-0.0966,-0.0963,-0.0934,-0.0901,-0.0897,-0.0892,-0.0836,-0.0824,-0.0814,0,0,0,0,0,0,-0.0876,-0.0899,-0.0918,-0.0886,-0.0889,-0.0908,-0.0887,-0.0911,-0.0907,-0.0913,-0.0944,-0.0946,-0.0915,-0.0922,-0.0948,-0.0888,-0.0926,-0.0921,-0.0885,-0.0874,-0.0865,-0.0863,-0.0997,0,0,0,0,0,-0.086,-0.0848,-0.0868,-0.0838,-0.0838,-0.0862,-0.0858,-0.0877,-0.0882,-0.0884,-0.0895,-0.0898,-0.0889,-0.0882,-0.0874,-0.0834,-0.0836,-0.0812,-0.0803,-0.0795,-0.079,-0.0766,-0.0755,-0.0874,-0.0874,-0.0874,0,0,-0.0826,-0.0837,-0.0827,-0.0826,-0.0832,-0.0817,-0.0863,-0.0847,-0.0836,-0.0881,-0.0856,-0.0865,-0.087,-0.0835,-0.0821,-0.084,-0.0757,-0.0789,-0.0783,-0.0782,-0.076,-0.0749,-0.0739,-0.087,-0.0871,-0.0871,0,0,-0.0756,-0.0764,-0.0738,-0.0742,-0.0749,-0.0765,-0.0758,-0.0772,-0.0779,-0.0755,-0.0788,-0.0775,-0.0758,-0.076,-0.0759,-0.0687,-0.0712,-0.0683,-0.0636,-0.0612,-0.0603,-0.0595,-0.0567,-0.0557,-0.0678,-0.0678,-0.0678,0,-0.0712,-0.0693,-0.0722,-0.0702,-0.07,-0.0739,-0.0712,-0.0714,-0.0718,-0.0715,-0.0737,-0.0715,-0.0722,-0.0687,-0.0669,-0.0667,-0.0659,-0.0682,-0.0602,-0.0594,-0.0587,-0.0561,-0.0551,-0.0674,-0.0675,-0.0675,-0.0675,0,-0.0638,-0.0624,-0.0602,-0.0605,-0.06,-0.0577,-0.06,-0.0591,-0.061,-0.0623,-0.0596,-0.0605,-0.0599,-0.0592,-0.0611,-0.0559,-0.0571,-0.0597,-0.0635,-0.0572,-0.0548,-0.0538,-0.0669,-0.067,-0.0671,-0.0672,0,0,-0.0534,-0.0551,-0.0542,-0.0543,-0.0552,-0.0541,-0.0519,-0.0513,-0.0504,-0.0505,-0.0485,-0.0469,-0.0493,-0.0491,-0.051,-0.0489,-0.0429,-0.0518,-0.0518,-0.05,-0.037,-0.0349,-0.0337,-0.0446,-0.0444,-0.0443,-0.0369,0,-0.0467,-0.043,-0.0454,-0.0413,-0.0398,-0.0434,-0.0415,-0.0417,-0.0428,-0.0417,-0.0428,-0.0416,-0.0449,-0.0447,-0.0429,-0.044,-0.0403,-0.0446,-0.0426,-0.0425,-0.0423,-0.0325,-0.0304,-0.0234,-0.036,-0.0358,-0.0357,0,-0.0383,-0.038,-0.0337,-0.0347,-0.0342,-0.0324,-0.0319,-0.0308,-0.0311,-0.032,-0.0317,-0.034,-0.0317,-0.0355,-0.0322,-0.0351,-0.0344,-0.0348,-0.0346,-0.0344,-0.0387,-0.0319,-0.0212,-0.0201,-0.0343,-0.0344,-0.0345,0,-0.0309,-0.0294,-0.0266,-0.0265,-0.0277,-0.0262,-0.0266,-0.0271,-0.0265,-0.0261,-0.0256,-0.0249,-0.0245,-0.0238,-0.0257,-0.0284,-0.0221,-0.0262,-0.0227,-0.0226,-0.0211,-0.0212,-0.01,-0.0209,-0.0209,-0.0209,-0.0209,0,-0.0231,-0.0203,-0.0232,-0.0215,-0.0183,-0.021,-0.0178,-0.0186,-0.0189,-0.0173,-0.0204,-0.0187,-0.0215,-0.0201,-0.0216,-0.0186,-0.0184,-0.0189,-0.0193,-0.0186,-0.0185,-0.0181,-0.0186,-0.0206,-0.0207,-0.0208,-0.0208,0,-0.0143,-0.0162,-0.0133,-0.0145,-0.0148,-0.0124,-0.0134,-0.0118,-0.013,-0.0108,-0.0105,-0.0123,-0.0108,-0.0127,-0.0114,-0.0124,-0.0082,-0.0094,-0.0081,-0.0084,-0.0047,-0.0049,0.0072,0.0088,-0.0032,-0.0031,-0.003,0,-0.0091,-0.007,-0.008,-0.0071,-0.0073,-0.0058,-0.0052,-0.0077,-0.0068,-0.0069,-0.0051,-0.0039,-0.003,-0.0003,-0.0015,-0.0004,-0.0015,0.0027,-0.0014,-0.0006,-0.0013,-0.0013,-0.001,0.0035,0.0037,0.0038,0.0039,0,0.0004,-0.0006,0.0004,0.0012,0.0021,0.0026,0.0028,0.0038,0.0012,0.0023,0.0039,0.0046,0.006,0.0074,0.0082,0.0079,0.0056,0.0052,0.0061,0.0069,0.0077,0.0075,-0.0056,0.0049,0.0048,0.0047,0.0047,0.0046,0.0077,0.0094,0.0091,0.0104,0.0104,0.0108,0.0123,0.0114,0.0126,0.0136,0.0121,0.0141,0.014,0.0148,0.0148,0.0165,0.0147,0.0159,0.0163,0.0167,0.0173,0.0073,0.0166,0.0166,0.0165,0.0165,0.0165,0,0.0171,0.0168,0.018,0.0185,0.0196,0.0173,0.0175,0.0187,0.0204,0.0205,0.0215,0.0234,0.0248,0.0238,0.0251,0.0266,0.0256,0.027,0.0269,0.0269,0.0187,0.0179,0.0278,0.0278,0.0278,0.0278,0.0278,0.0278,0.0222,0.0252,0.0242,0.0272,0.0269,0.0288,0.0292,0.0296,0.0297,0.032,0.0331,0.0324,0.0322,0.0334,0.0346,0.0343,0.035,0.0369,0.0362,0.0286,0.0275,0.0264,0.0256,0.037,0.037,0.0443,0.0443,0.0444]}]]